sat.trackr.live / text

‹ back to catalog

RSW-01

NORAD 49112 · 2021-076A

PAYLOAD ACTIVE UNKNOWN

§ Identity

Operator
Country
PRC
Launch date
2021-08-24
Launch site
JSC
Launch vehicle
Mass (kg)
RCS (m²)

External: N2YO · Heavens-Above · Gunter

§ Orbital elements

Epoch: 2026-09-14T21:53:03.127200Z

Period
107.23 min
Inclination
86.4077°
Eccentricity
0.0015158
Mean motion
13.42862668 rev/d
Perigee alt
1,087.3 km
Apogee alt
1,110.0 km
Semi-major
7,476.8 km
B*
-1.7088e-4
RAAN
125.7945°
Arg perigee
167.4370°
Mean anomaly
192.7155°
Rev number
24,792

§ Raw data

RSW-011 49112U 21076A   26257.91184175 -.00000082  00000+0 -17088-3 0  99992 49112  86.4077 125.7945 0015158 167.4370 192.7155 13.42862668247922

JSON: /api/v1/satellites/49112 · /tle

For live sub-satellite position, see the globe view (requires WebGL).

§ Visibility from observer

Set your observer location to see the next 7 days of passes ≥ 10°. The values pass through the URL so the page stays shareable.

No JS? Fill the form by hand. The geolocation button needs JavaScript.